EN

Hourly Weather Tropie

Today, 20 April, Tuesday

Time Temperature Precipitation Wind Pressure Humidity
00:00 +6°C° 0 mm 0 mps 736 mmHg 94%
01:00 +6°C° 0 mm 0 mps 736 mmHg 94%
02:00 +7°C° 0 mm 1 mps 736 mmHg 94%
03:00 +7°C° 0 mm 1 mps 736 mmHg 94%
04:00 +7°C° 0 mm 1 mps 736 mmHg 94%
05:00 +7°C° 0.1 mm 1 mps 736 mmHg 91%
06:00 +8°C° 0.1 mm 1 mps 736 mmHg 88%
07:00 +8°C° 0 mm 1 mps 736 mmHg 86%
08:00 +9°C° 0.2 mm 2 mps 736 mmHg 79%
09:00 +10°C° 0.2 mm 2 mps 736 mmHg 72%
10:00 +12°C° 0.2 mm 2 mps 736 mmHg 66%
11:00 +12°C° 0.3 mm 2 mps 735 mmHg 63%
12:00 +13°C° 0.3 mm 2 mps 735 mmHg 61%
13:00 +14°C° 0.3 mm 2 mps 735 mmHg 58%
14:00 +14°C° 0.3 mm 2 mps 735 mmHg 59%
15:00 +14°C° 0.3 mm 2 mps 735 mmHg 59%
16:00 +13°C° 0.3 mm 2 mps 735 mmHg 60%
17:00 +12°C° 0.1 mm 2 mps 735 mmHg 65%
18:00 +11°C° 0.1 mm 1 mps 735 mmHg 71%
19:00 +9°C° 0.1 mm 1 mps 735 mmHg 76%
20:00 +9°C° 0 mm 1 mps 735 mmHg 78%
21:00 +8°C° 0 mm 1 mps 735 mmHg 80%
22:00 +8°C° 0 mm 1 mps 735 mmHg 82%
23:00 +8°C° 0 mm 1 mps 735 mmHg 83%

Tomorrow, 21 April, Wednesday

Time Temperature Precipitation Wind Pressure Humidity
00:00 +8°C° 0 mm 1 mps 735 mmHg 83%
01:00 +8°C° 0 mm 1 mps 735 mmHg 83%
02:00 +6°C° 0 mm 2 mps 735 mmHg 84%
03:00 +6°C° 0 mm 2 mps 735 mmHg 85%
04:00 +5°C° 0 mm 2 mps 735 mmHg 85%
05:00 +7°C° 0 mm 2 mps 735 mmHg 82%
06:00 +8°C° 0 mm 2 mps 735 mmHg 78%
07:00 +9°C° 0 mm 2 mps 736 mmHg 74%
08:00 +10°C° 0 mm 2 mps 735 mmHg 68%
09:00 +13°C° 0 mm 2 mps 735 mmHg 62%
10:00 +13°C° 0 mm 3 mps 735 mmHg 56%
11:00 +14°C° 0.3 mm 3 mps 735 mmHg 57%
12:00 +14°C° 0.3 mm 3 mps 735 mmHg 58%
13:00 +14°C° 0.3 mm 4 mps 735 mmHg 59%
14:00 +14°C° 0.7 mm 3 mps 735 mmHg 62%
15:00 +14°C° 0.7 mm 3 mps 734 mmHg 65%
16:00 +14°C° 0.7 mm 3 mps 734 mmHg 68%
17:00 +12°C° 0.5 mm 3 mps 734 mmHg 73%
18:00 +12°C° 0.5 mm 2 mps 735 mmHg 78%
19:00 +10°C° 0.5 mm 1 mps 735 mmHg 83%
20:00 +10°C° 0.2 mm 1 mps 735 mmHg 85%
21:00 +9°C° 0.2 mm 1 mps 735 mmHg 87%
22:00 +9°C° 0.2 mm 1 mps 735 mmHg 89%
23:00 +9°C° 0.2 mm 1 mps 735 mmHg 90%

Day after tomorrow, 22 April, Thursday

Time Temperature Precipitation Wind Pressure Humidity
00:00 +9°C° 0.2 mm 1 mps 735 mmHg 90%
01:00 +9°C° 0.2 mm 1 mps 735 mmHg 91%
02:00 +8°C° 0.9 mm 2 mps 735 mmHg 92%
03:00 +7°C° 0.9 mm 2 mps 735 mmHg 93%
04:00 +7°C° 0.9 mm 2 mps 735 mmHg 94%
05:00 +8°C° 0 mm 2 mps 735 mmHg 91%
06:00 +8°C° 0 mm 2 mps 736 mmHg 88%
07:00 +9°C° 0 mm 2 mps 736 mmHg 84%
08:00 +9°C° 0.5 mm 3 mps 736 mmHg 86%
09:00 +8°C° 0.5 mm 3 mps 736 mmHg 87%
10:00 +7°C° 0.5 mm 4 mps 736 mmHg 89%
11:00 +6°C° 1.6 mm 4 mps 737 mmHg 90%
12:00 +5°C° 1.6 mm 3 mps 737 mmHg 92%
13:00 +4°C° 1.6 mm 3 mps 737 mmHg 93%
14:00 +4°C° 0 mm 3 mps 738 mmHg 91%
15:00 +4°C° 0 mm 3 mps 738 mmHg 88%
16:00 +4°C° 0 mm 3 mps 738 mmHg 86%
17:00 +4°C° 0 mm 2 mps 738 mmHg 87%
18:00 +4°C° 0 mm 2 mps 738 mmHg 88%
19:00 +4°C° 0 mm 2 mps 738 mmHg 88%
20:00 +3°C° 0 mm 2 mps 738 mmHg 89%
21:00 +3°C° 0 mm 2 mps 738 mmHg 89%
22:00 +3°C° 0 mm 2 mps 738 mmHg 90%
23:00 +2°C° 0 mm 2 mps 738 mmHg 91%

23 April, Friday

Time Temperature Precipitation Wind Pressure Humidity
00:00 +2°C° 0 mm 2 mps 738 mmHg 91%
01:00 +1°C° 0 mm 2 mps 739 mmHg 92%
02:00 +1°C° 0 mm 2 mps 739 mmHg 92%
03:00 +1°C° 0 mm 2 mps 739 mmHg 92%
04:00 +1°C° 0 mm 2 mps 739 mmHg 92%
05:00 +1°C° 0 mm 3 mps 739 mmHg 88%
06:00 +2°C° 0 mm 3 mps 740 mmHg 84%
07:00 +3°C° 0 mm 4 mps 740 mmHg 80%
08:00 +4°C° 0.2 mm 4 mps 740 mmHg 72%
09:00 +5°C° 0.2 mm 4 mps 740 mmHg 64%
10:00 +6°C° 0.2 mm 4 mps 741 mmHg 57%
11:00 +7°C° 0.1 mm 4 mps 740 mmHg 53%
12:00 +7°C° 0.1 mm 4 mps 740 mmHg 50%
13:00 +8°C° 0.1 mm 4 mps 740 mmHg 46%
14:00 +7°C° 0.2 mm 5 mps 740 mmHg 56%
15:00 +6°C° 0.2 mm 5 mps 740 mmHg 65%
16:00 +6°C° 0.2 mm 5 mps 740 mmHg 74%
17:00 +3°C° 0.4 mm 5 mps 741 mmHg 78%
18:00 +3°C° 0.4 mm 4 mps 741 mmHg 81%
19:00 +2°C° 0.4 mm 3 mps 742 mmHg 85%
20:00 +1°C° 0 mm 3 mps 742 mmHg 87%
21:00 0°C° 0 mm 3 mps 742 mmHg 89%
22:00 -1°C° 0 mm 2 mps 743 mmHg 91%
23:00 -1°C° 0 mm 2 mps 743 mmHg 91%

24 April, Saturday

Time Temperature Precipitation Wind Pressure Humidity
00:00 -1°C° 0 mm 2 mps 742 mmHg 91%
01:00 -1°C° 0 mm 2 mps 742 mmHg 91%
02:00 -1°C° 0 mm 2 mps 742 mmHg 91%
03:00 -1°C° 0 mm 3 mps 743 mmHg 91%
04:00 -1°C° 0 mm 3 mps 743 mmHg 91%
05:00 0°C° 0.1 mm 3 mps 743 mmHg 88%
06:00 +1°C° 0.1 mm 3 mps 743 mmHg 86%
07:00 +1°C° 0.1 mm 4 mps 743 mmHg 83%
08:00 +4°C° 0 mm 4 mps 743 mmHg 72%
09:00 +5°C° 0 mm 4 mps 743 mmHg 62%
10:00 +6°C° 0 mm 4 mps 743 mmHg 51%
11:00 +7°C° 0 mm 4 mps 743 mmHg 49%
12:00 +8°C° 0 mm 4 mps 742 mmHg 46%
13:00 +8°C° 0 mm 4 mps 742 mmHg 44%
14:00 +10°C° 0 mm 4 mps 741 mmHg 45%
15:00 +10°C° 0 mm 4 mps 741 mmHg 46%
16:00 +10°C° 0 mm 4 mps 740 mmHg 47%
17:00 +8°C° 0 mm 3 mps 740 mmHg 56%
18:00 +5°C° 0 mm 3 mps 740 mmHg 65%
19:00 +5°C° 0 mm 2 mps 740 mmHg 74%
20:00 +5°C° 0.1 mm 2 mps 740 mmHg 79%
21:00 +4°C° 0.1 mm 2 mps 741 mmHg 85%
22:00 +4°C° 0.1 mm 2 mps 741 mmHg 90%
23:00 +4°C° 0.1 mm 2 mps 741 mmHg 92%

25 April, Sunday

Time Temperature Precipitation Wind Pressure Humidity
00:00 +4°C° 0.1 mm 2 mps 741 mmHg 93%
01:00 +3°C° 0.1 mm 2 mps 741 mmHg 94%
02:00 +3°C° 0.1 mm 2 mps 741 mmHg 95%
03:00 +2°C° 0.1 mm 2 mps 740 mmHg 96%
04:00 +2°C° 0.1 mm 2 mps 740 mmHg 97%
05:00 +2°C° 0.1 mm 2 mps 741 mmHg 92%
06:00 +3°C° 0.1 mm 2 mps 741 mmHg 88%
07:00 +3°C° 0.1 mm 2 mps 741 mmHg 84%
08:00 +3°C° 0.1 mm 3 mps 741 mmHg 74%
09:00 +4°C° 0.1 mm 3 mps 741 mmHg 65%
10:00 +5°C° 0.1 mm 4 mps 741 mmHg 55%
11:00 +5°C° 0.1 mm 4 mps 741 mmHg 52%
12:00 +6°C° 0.1 mm 4 mps 741 mmHg 48%
13:00 +6°C° 0.1 mm 4 mps 740 mmHg 44%
14:00 +6°C° 0.1 mm 4 mps 740 mmHg 46%
15:00 +6°C° 0.1 mm 4 mps 740 mmHg 47%
16:00 +6°C° 0.1 mm 4 mps 740 mmHg 49%
17:00 +4°C° 0.1 mm 3 mps 740 mmHg 57%
18:00 +3°C° 0.1 mm 3 mps 740 mmHg 65%
19:00 +2°C° 0.1 mm 2 mps 740 mmHg 73%
20:00 +2°C° 0.1 mm 2 mps 741 mmHg 76%
21:00 +2°C° 0.1 mm 2 mps 741 mmHg 78%
22:00 +1°C° 0.1 mm 3 mps 741 mmHg 81%
23:00 0°C° 0 mm 3 mps 741 mmHg 83%
Show more

We Need Your Consent

Meteoprog and our Service Providers may store and access personal data such as cookies, device identifiers or other similar technologies on your device and process such data to personalise content and ads, as well as provide social media features and to analyse the traffic.

  • Store and/or access information on your device

    Cookies, device identifiers or other information can be stored or accessed on your device for the purposes indicated above.

  • Personalised ads and content, ad and content measurement, audience insights, and products development

    Ads and content can be personalised based on a profile. More data can be added to better personalise ads and content. Ad and content performance can be measured. Insights about the audience who saw the ads and content can be derived. Such data can be used to develop or improve user’s experience, systems and software.

By clicking ‘I Agree’ you will allow the use of indicated cookies, device identifiers, web beacons or other similar technologies. Your settings can be changed in the browser on your device.

For certain purposes, legitimate interests may be relied on, rather than consent. You can read more about this in our Privacy and Cookie Policy.